date,time,SUV Intensity [MED/Hr],UV Index,Daily total [MED],Since Last [MED]
01/09/2022,00:12:21,0.000,0.0,0.0,0.0
01/09/2022,00:13:22,0.000,0.0,0.0,0.0
01/09/2022,00:14:22,0.000,0.0,0.0,0.0
01/09/2022,00:15:22,0.000,0.0,0.0,0.0
01/09/2022,00:16:20,0.000,0.0,0.0,0.0
01/09/2022,00:17:21,0.000,0.0,0.0,0.0
01/09/2022,00:18:22,-0.001,0.0,0.0,0.0
01/09/2022,00:19:22,0.000,0.0,0.0,0.0
01/09/2022,00:20:22,-0.000,0.0,0.0,0.0
01/09/2022,00:21:23,-0.001,0.0,0.0,0.0
01/09/2022,00:22:23,0.001,0.0,0.0,0.0
01/09/2022,00:23:22,0.000,0.0,0.0,0.0
01/09/2022,00:24:23,0.000,0.0,0.0,0.0
01/09/2022,00:25:23,0.000,0.0,0.0,0.0
01/09/2022,00:26:22,0.000,0.0,0.0,0.0
01/09/2022,00:27:20,-0.000,0.0,0.0,0.0
01/09/2022,00:28:20,0.001,0.0,0.0,0.0
01/09/2022,00:29:31,0.000,0.0,0.0,0.0
01/09/2022,00:31:22,0.000,0.0,0.0,0.0
01/09/2022,00:32:22,0.000,0.0,0.0,0.0
01/09/2022,00:33:22,0.000,0.0,0.0,0.0
01/09/2022,00:34:22,0.000,0.0,0.0,0.0
01/09/2022,00:35:23,0.000,0.0,0.0,0.0
01/09/2022,00:36:23,0.000,0.0,0.0,0.0
01/09/2022,00:37:22,-0.001,0.0,0.0,0.0
01/09/2022,00:38:22,0.000,0.0,0.0,0.0
01/09/2022,00:39:23,0.000,0.0,0.0,0.0
01/09/2022,00:40:23,0.000,0.0,0.0,0.0
01/09/2022,00:41:23,0.001,0.0,0.0,0.0
01/09/2022,00:42:22,-0.000,0.0,0.0,0.0
01/09/2022,00:43:22,0.001,0.0,0.0,0.0
01/09/2022,00:44:20,0.000,0.0,0.0,0.0
01/09/2022,00:45:20,0.000,0.0,0.0,0.0
01/09/2022,00:46:23,0.000,0.0,0.0,0.0
01/09/2022,00:47:23,-0.000,0.0,0.0,0.0
01/09/2022,00:48:22,0.000,0.0,0.0,0.0
01/09/2022,00:49:22,0.001,0.0,0.0,0.0
01/09/2022,00:50:31,0.001,0.0,0.0,0.0
01/09/2022,00:52:23,-0.000,0.0,0.0,0.0
01/09/2022,00:53:22,0.000,0.0,0.0,0.0
01/09/2022,00:54:22,-0.000,0.0,0.0,0.0
01/09/2022,00:55:23,0.000,0.0,0.0,0.0
01/09/2022,00:56:22,-0.001,0.0,0.0,0.0
01/09/2022,00:57:23,0.000,0.0,0.0,0.0
01/09/2022,00:58:23,-0.000,0.0,0.0,0.0
01/09/2022,00:59:23,-0.000,0.0,0.0,0.0
01/09/2022,01:00:22,-0.001,0.0,0.0,0.0
01/09/2022,01:01:22,0.000,0.0,0.0,0.0
01/09/2022,01:02:30,0.000,0.0,0.0,0.0
01/09/2022,01:04:23,0.001,0.0,0.0,0.0
01/09/2022,01:05:23,0.000,0.0,0.0,0.0
01/09/2022,01:06:22,0.000,0.0,0.0,0.0
01/09/2022,01:07:22,0.000,0.0,0.0,0.0
01/09/2022,01:08:22,-0.000,0.0,0.0,0.0
01/09/2022,01:09:22,0.001,0.0,0.0,0.0
01/09/2022,01:10:22,0.000,0.0,0.0,0.0
01/09/2022,01:11:22,-0.001,0.0,0.0,0.0
01/09/2022,01:12:23,0.000,0.0,0.0,0.0
01/09/2022,01:13:22,-0.000,0.0,0.0,0.0
01/09/2022,01:14:23,0.001,0.0,0.0,0.0
01/09/2022,01:15:23,0.001,0.0,0.0,0.0
01/09/2022,01:16:23,-0.001,0.0,0.0,0.0
01/09/2022,01:17:22,0.001,0.0,0.0,0.0
01/09/2022,01:18:22,0.000,0.0,0.0,0.0
01/09/2022,01:19:22,0.001,0.0,0.0,0.0
01/09/2022,01:20:31,0.001,0.0,0.0,0.0
01/09/2022,01:22:23,0.000,0.0,0.0,0.0
01/09/2022,01:23:22,0.000,0.0,0.0,0.0
01/09/2022,01:24:22,-0.001,0.0,0.0,0.0
01/09/2022,01:25:24,0.000,0.0,0.0,0.0
01/09/2022,01:26:23,0.000,0.0,0.0,0.0
01/09/2022,01:27:23,0.000,0.0,0.0,0.0
01/09/2022,01:28:22,-0.000,0.0,0.0,0.0
01/09/2022,01:29:22,0.000,0.0,0.0,0.0
01/09/2022,01:30:23,0.000,0.0,0.0,0.0
01/09/2022,01:31:23,0.001,0.0,0.0,0.0
01/09/2022,01:32:31,0.000,0.0,0.0,0.0
01/09/2022,01:34:23,0.000,0.0,0.0,0.0
01/09/2022,01:35:30,0.000,0.0,0.0,0.0
01/09/2022,01:37:23,0.000,0.0,0.0,0.0
01/09/2022,01:38:31,0.000,0.0,0.0,0.0
01/09/2022,01:40:24,0.001,0.0,0.0,0.0
01/09/2022,01:41:23,0.001,0.0,0.0,0.0
01/09/2022,01:42:22,-0.000,0.0,0.0,0.0
01/09/2022,01:43:23,0.001,0.0,0.0,0.0
01/09/2022,01:44:23,0.000,0.0,0.0,0.0
01/09/2022,01:45:20,-0.000,0.0,0.0,0.0
01/09/2022,01:46:21,0.000,0.0,0.0,0.0
01/09/2022,01:47:30,-0.001,0.0,0.0,0.0
01/09/2022,01:49:21,0.000,0.0,0.0,0.0
01/09/2022,01:50:21,0.001,0.0,0.0,0.0
01/09/2022,01:51:23,0.000,0.0,0.0,0.0
01/09/2022,01:52:23,0.001,0.0,0.0,0.0
01/09/2022,01:53:22,0.000,0.0,0.0,0.0
01/09/2022,01:54:22,0.001,0.0,0.0,0.0
01/09/2022,01:55:22,0.001,0.0,0.0,0.0
01/09/2022,01:56:22,-0.000,0.0,0.0,0.0
01/09/2022,01:57:31,-0.000,0.0,0.0,0.0
01/09/2022,01:59:23,0.001,0.0,0.0,0.0
01/09/2022,02:00:22,0.000,0.0,0.0,0.0
01/09/2022,02:01:23,0.000,0.0,0.0,0.0
01/09/2022,02:02:23,0.000,0.0,0.0,0.0
01/09/2022,02:03:21,0.001,0.0,0.0,0.0
01/09/2022,02:04:20,-0.000,0.0,0.0,0.0
01/09/2022,02:05:23,0.001,0.0,0.0,0.0
01/09/2022,02:06:22,0.001,0.0,0.0,0.0
01/09/2022,02:07:23,0.001,0.0,0.0,0.0
01/09/2022,02:08:23,0.000,0.0,0.0,0.0
01/09/2022,02:09:22,0.000,0.0,0.0,0.0
01/09/2022,02:10:23,0.000,0.0,0.0,0.0
01/09/2022,02:11:23,0.001,0.0,0.0,0.0
01/09/2022,02:12:30,0.001,0.0,0.0,0.0
01/09/2022,02:13:22,0.001,0.0,0.0,0.0
01/09/2022,02:14:23,0.000,0.0,0.0,0.0
01/09/2022,02:15:31,0.000,0.0,0.0,0.0
01/09/2022,02:17:23,0.000,0.0,0.0,0.0
01/09/2022,02:18:22,0.000,0.0,0.0,0.0
01/09/2022,02:19:22,0.000,0.0,0.0,0.0
01/09/2022,02:20:22,0.000,0.0,0.0,0.0
01/09/2022,02:21:22,0.000,0.0,0.0,0.0
01/09/2022,02:22:22,0.000,0.0,0.0,0.0
01/09/2022,02:23:22,0.001,0.0,0.0,0.0
01/09/2022,02:24:23,0.001,0.0,0.0,0.0
01/09/2022,02:25:23,0.000,0.0,0.0,0.0
01/09/2022,02:26:23,-0.000,0.0,0.0,0.0
01/09/2022,02:27:31,0.000,0.0,0.0,0.0
01/09/2022,02:29:24,0.000,0.0,0.0,0.0
01/09/2022,02:30:22,-0.000,0.0,0.0,0.0
01/09/2022,02:31:23,0.001,0.0,0.0,0.0
01/09/2022,02:32:23,0.000,0.0,0.0,0.0
01/09/2022,02:33:23,0.000,0.0,0.0,0.0
01/09/2022,02:34:23,-0.000,0.0,0.0,0.0
01/09/2022,02:35:22,0.001,0.0,0.0,0.0
01/09/2022,02:36:20,0.000,0.0,0.0,0.0
01/09/2022,02:37:21,-0.000,0.0,0.0,0.0
01/09/2022,02:38:22,0.000,0.0,0.0,0.0
01/09/2022,02:39:22,0.000,0.0,0.0,0.0
01/09/2022,02:40:22,0.001,0.0,0.0,0.0
01/09/2022,02:41:20,-0.000,0.0,0.0,0.0
01/09/2022,02:42:21,0.000,0.0,0.0,0.0
01/09/2022,02:43:22,0.000,0.0,0.0,0.0
01/09/2022,02:44:22,0.001,0.0,0.0,0.0
01/09/2022,02:45:22,0.000,0.0,0.0,0.0
01/09/2022,02:46:23,0.000,0.0,0.0,0.0
01/09/2022,02:47:23,-0.001,0.0,0.0,0.0
01/09/2022,02:48:31,0.000,0.0,0.0,0.0
01/09/2022,02:50:22,-0.000,0.0,0.0,0.0
01/09/2022,02:51:22,0.000,0.0,0.0,0.0
01/09/2022,02:52:20,0.000,0.0,0.0,0.0
01/09/2022,02:53:20,0.001,0.0,0.0,0.0
01/09/2022,02:54:23,0.000,0.0,0.0,0.0
01/09/2022,02:55:22,0.001,0.0,0.0,0.0
01/09/2022,02:56:23,0.000,0.0,0.0,0.0
01/09/2022,02:57:23,0.000,0.0,0.0,0.0
01/09/2022,02:58:29,0.000,0.0,0.0,0.0
01/09/2022,02:59:20,0.001,0.0,0.0,0.0
01/09/2022,03:00:31,0.000,0.0,0.0,0.0
01/09/2022,03:02:32,0.001,0.0,0.0,0.0
01/09/2022,03:04:32,-0.001,0.0,0.0,0.0
01/09/2022,03:06:24,0.000,0.0,0.0,0.0
01/09/2022,03:07:22,0.000,0.0,0.0,0.0
01/09/2022,03:08:39,0.000,0.0,0.0,0.0
01/09/2022,03:10:23,0.001,0.0,0.0,0.0
01/09/2022,03:11:23,0.000,0.0,0.0,0.0
01/09/2022,03:12:23,0.001,0.0,0.0,0.0
01/09/2022,03:13:31,0.000,0.0,0.0,0.0
01/09/2022,03:14:22,0.001,0.0,0.0,0.0
01/09/2022,03:15:23,0.000,0.0,0.0,0.0
01/09/2022,03:16:31,0.000,0.0,0.0,0.0
01/09/2022,03:18:23,0.000,0.0,0.0,0.0
01/09/2022,03:19:23,0.001,0.0,0.0,0.0
01/09/2022,03:20:23,0.001,0.0,0.0,0.0
01/09/2022,03:21:22,0.001,0.0,0.0,0.0
01/09/2022,03:22:22,0.000,0.0,0.0,0.0
01/09/2022,03:23:20,0.001,0.0,0.0,0.0
01/09/2022,03:24:21,-0.000,0.0,0.0,0.0
01/09/2022,03:25:22,0.000,0.0,0.0,0.0
01/09/2022,03:26:22,-0.000,0.0,0.0,0.0
01/09/2022,03:27:23,-0.000,0.0,0.0,0.0
01/09/2022,03:28:31,0.000,0.0,0.0,0.0
01/09/2022,03:30:24,0.000,0.0,0.0,0.0
01/09/2022,03:31:31,0.000,0.0,0.0,0.0
01/09/2022,03:33:24,-0.001,0.0,0.0,0.0
01/09/2022,03:34:24,-0.000,0.0,0.0,0.0
01/09/2022,03:35:23,0.000,0.0,0.0,0.0
01/09/2022,03:36:22,-0.000,0.0,0.0,0.0
01/09/2022,03:37:22,0.000,0.0,0.0,0.0
01/09/2022,03:38:23,0.001,0.0,0.0,0.0
01/09/2022,03:39:23,0.000,0.0,0.0,0.0
01/09/2022,03:40:22,-0.000,0.0,0.0,0.0
01/09/2022,03:41:23,0.001,0.0,0.0,0.0
01/09/2022,03:42:23,-0.000,0.0,0.0,0.0
01/09/2022,03:43:22,-0.000,0.0,0.0,0.0
01/09/2022,03:44:22,-0.000,0.0,0.0,0.0
01/09/2022,03:45:22,0.000,0.0,0.0,0.0
01/09/2022,03:46:22,0.000,0.0,0.0,0.0
01/09/2022,03:47:22,-0.000,0.0,0.0,0.0
01/09/2022,03:48:22,0.000,0.0,0.0,0.0
01/09/2022,03:49:21,-0.000,0.0,0.0,0.0
01/09/2022,03:50:21,0.000,0.0,0.0,0.0
01/09/2022,03:51:23,0.000,0.0,0.0,0.0
01/09/2022,03:52:22,-0.001,0.0,0.0,0.0
01/09/2022,03:53:23,0.000,0.0,0.0,0.0
01/09/2022,03:54:22,0.000,0.0,0.0,0.0
01/09/2022,03:55:22,-0.000,0.0,0.0,0.0
01/09/2022,03:56:23,0.001,0.0,0.0,0.0
01/09/2022,03:57:39,0.000,0.0,0.0,0.0
01/09/2022,03:59:31,-0.000,0.0,0.0,0.0
01/09/2022,04:01:24,0.000,0.0,0.0,0.0
01/09/2022,04:02:33,-0.000,0.0,0.0,0.0
01/09/2022,04:04:23,-0.000,0.0,0.0,0.0
01/09/2022,04:05:23,-0.000,0.0,0.0,0.0
01/09/2022,04:06:23,-0.000,0.0,0.0,0.0
01/09/2022,04:07:22,-0.000,0.0,0.0,0.0
01/09/2022,04:08:22,-0.000,0.0,0.0,0.0
01/09/2022,04:09:23,0.000,0.0,0.0,0.0
01/09/2022,04:10:23,0.000,0.0,0.0,0.0
01/09/2022,04:11:23,-0.000,0.0,0.0,0.0
01/09/2022,04:12:23,0.000,0.0,0.0,0.0
01/09/2022,04:13:20,-0.001,0.0,0.0,0.0
01/09/2022,04:14:20,-0.000,0.0,0.0,0.0
01/09/2022,04:15:22,-0.000,0.0,0.0,0.0
01/09/2022,04:16:23,0.001,0.0,0.0,0.0
01/09/2022,04:17:23,-0.000,0.0,0.0,0.0
01/09/2022,04:18:23,-0.001,0.0,0.0,0.0
01/09/2022,04:19:23,0.000,0.0,0.0,0.0
01/09/2022,04:20:31,-0.000,0.0,0.0,0.0
01/09/2022,04:22:24,0.001,0.0,0.0,0.0
01/09/2022,04:23:23,0.000,0.0,0.0,0.0
01/09/2022,04:24:22,-0.001,0.0,0.0,0.0
01/09/2022,04:25:23,0.000,0.0,0.0,0.0
01/09/2022,04:26:23,-0.000,0.0,0.0,0.0
01/09/2022,04:27:22,-0.000,0.0,0.0,0.0
01/09/2022,04:28:21,-0.001,0.0,0.0,0.0
01/09/2022,04:29:20,-0.000,0.0,0.0,0.0
01/09/2022,04:30:31,-0.000,0.0,0.0,0.0
01/09/2022,04:32:23,0.001,0.0,0.0,0.0
01/09/2022,04:33:23,-0.000,0.0,0.0,0.0
01/09/2022,04:34:23,-0.000,0.0,0.0,0.0
01/09/2022,04:35:23,0.000,0.0,0.0,0.0
01/09/2022,04:36:23,-0.001,0.0,0.0,0.0
01/09/2022,04:37:22,0.001,0.0,0.0,0.0
01/09/2022,04:38:22,0.000,0.0,0.0,0.0
01/09/2022,04:39:23,-0.001,0.0,0.0,0.0
01/09/2022,04:40:23,-0.000,0.0,0.0,0.0
01/09/2022,04:41:23,-0.000,0.0,0.0,0.0
01/09/2022,04:42:23,0.000,0.0,0.0,0.0
01/09/2022,04:43:10,-0.000,0.0,0.0,0.0
01/09/2022,04:44:24,0.001,0.0,0.0,0.0
01/09/2022,04:45:23,-0.000,0.0,0.0,0.0
01/09/2022,04:46:23,0.000,0.0,0.0,0.0
01/09/2022,04:47:23,-0.000,0.0,0.0,0.0
01/09/2022,04:48:22,-0.000,0.0,0.0,0.0
01/09/2022,04:49:23,0.001,0.0,0.0,0.0
01/09/2022,04:50:23,-0.000,0.0,0.0,0.0
01/09/2022,04:51:31,0.001,0.0,0.0,0.0
01/09/2022,04:53:23,-0.000,0.0,0.0,0.0
01/09/2022,04:54:23,-0.001,0.0,0.0,0.0
01/09/2022,04:55:22,0.001,0.0,0.0,0.0
01/09/2022,04:56:23,-0.001,0.0,0.0,0.0
01/09/2022,04:57:23,-0.000,0.0,0.0,0.0
01/09/2022,04:58:30,0.001,0.0,0.0,0.0
01/09/2022,04:59:22,-0.000,0.0,0.0,0.0
01/09/2022,05:00:23,-0.001,0.0,0.0,0.0
01/09/2022,05:01:29,0.001,0.0,0.0,0.0
01/09/2022,05:02:21,0.000,0.0,0.0,0.0
01/09/2022,05:03:23,-0.000,0.0,0.0,0.0
01/09/2022,05:04:23,-0.000,0.0,0.0,0.0
01/09/2022,05:05:23,-0.000,0.0,0.0,0.0
01/09/2022,05:06:23,0.000,0.0,0.0,0.0
01/09/2022,05:07:22,-0.000,0.0,0.0,0.0
01/09/2022,05:08:22,-0.000,0.0,0.0,0.0
01/09/2022,05:09:22,-0.001,0.0,0.0,0.0
01/09/2022,05:10:23,0.000,0.0,0.0,0.0
01/09/2022,05:11:23,0.000,0.0,0.0,0.0
01/09/2022,05:12:23,0.001,0.0,0.0,0.0
01/09/2022,05:13:23,0.000,0.0,0.0,0.0
01/09/2022,05:14:10,-0.000,0.0,0.0,0.0
01/09/2022,05:15:24,-0.001,0.0,0.0,0.0
01/09/2022,05:16:23,0.000,0.0,0.0,0.0
01/09/2022,05:17:23,0.000,0.0,0.0,0.0
01/09/2022,05:18:22,-0.000,0.0,0.0,0.0
01/09/2022,05:19:31,0.000,0.0,0.0,0.0
01/09/2022,05:21:24,0.000,0.0,0.0,0.0
01/09/2022,05:22:23,0.001,0.0,0.0,0.0
01/09/2022,05:23:23,0.001,0.0,0.0,0.0
01/09/2022,05:24:23,0.000,0.0,0.0,0.0
01/09/2022,05:25:23,0.000,0.0,0.0,0.0
01/09/2022,05:26:23,0.001,0.0,0.0,0.0
01/09/2022,05:27:21,0.000,0.0,0.0,0.0
01/09/2022,05:28:33,0.001,0.0,0.0,0.0
01/09/2022,05:30:32,0.002,0.0,0.0,0.0
01/09/2022,05:32:23,0.000,0.0,0.0,0.0
01/09/2022,05:33:23,0.001,0.0,0.0,0.0
01/09/2022,05:34:23,0.002,0.0,0.0,0.0
01/09/2022,05:35:22,0.001,0.0,0.0,0.0
01/09/2022,05:36:23,0.002,0.0,0.0,0.0
01/09/2022,05:37:23,0.002,0.0,0.0,0.0
01/09/2022,05:38:21,0.001,0.0,0.0,0.0
01/09/2022,05:39:21,0.001,0.0,0.0,0.0
01/09/2022,05:40:23,0.001,0.0,0.0,0.0
01/09/2022,05:41:23,0.002,0.0,0.0,0.0
01/09/2022,05:42:23,0.002,0.0,0.0,0.0
01/09/2022,05:43:23,0.002,0.0,0.0,0.0
01/09/2022,05:44:31,0.003,0.0,0.0,0.0
01/09/2022,05:46:24,0.003,0.0,0.0,0.0
01/09/2022,05:47:23,0.003,0.0,0.0,0.0
01/09/2022,05:48:22,0.003,0.0,0.0,0.0
01/09/2022,05:49:39,0.003,0.0,0.0,0.0
01/09/2022,05:51:32,0.003,0.0,0.0,0.0
01/09/2022,05:53:23,0.003,0.0,0.0,0.0
01/09/2022,05:54:23,0.004,0.0,0.0,0.0
01/09/2022,05:55:23,0.003,0.0,0.0,0.0
01/09/2022,05:56:23,0.003,0.0,0.0,0.0
01/09/2022,05:57:23,0.003,0.0,0.0,0.0
01/09/2022,05:58:23,0.003,0.0,0.0,0.0
01/09/2022,05:59:31,0.003,0.0,0.0,0.0
01/09/2022,06:01:24,0.003,0.0,0.0,0.0
01/09/2022,06:02:21,0.004,0.0,0.0,0.0
01/09/2022,06:03:29,0.004,0.0,0.0,0.0
01/09/2022,06:04:21,0.004,0.0,0.0,0.0
01/09/2022,06:05:21,0.004,0.0,0.0,0.0
01/09/2022,06:06:23,0.006,0.0,0.0,0.0
01/09/2022,06:07:23,0.006,0.0,0.0,0.0
01/09/2022,06:08:21,0.007,0.0,0.0,0.0
01/09/2022,06:09:29,0.009,0.0,0.0,0.0
01/09/2022,06:10:23,0.008,0.0,0.0,0.0
01/09/2022,06:11:23,0.008,0.0,0.001,0.001
01/09/2022,06:12:31,0.008,0.0,0.001,0.0
01/09/2022,06:14:23,0.009,0.0,0.001,0.0
01/09/2022,06:15:31,0.009,0.0,0.001,0.0
01/09/2022,06:17:24,0.008,0.0,0.001,0.0
01/09/2022,06:18:40,0.008,0.0,0.002,0.001
01/09/2022,06:20:23,0.008,0.0,0.002,0.0
01/09/2022,06:21:24,0.008,0.0,0.002,0.0
01/09/2022,06:22:23,0.007,0.0,0.002,0.0
01/09/2022,06:23:23,0.007,0.0,0.002,0.0
01/09/2022,06:24:23,0.007,0.0,0.002,0.0
01/09/2022,06:25:23,0.005,0.0,0.002,0.0
01/09/2022,06:26:22,0.007,0.0,0.002,0.0
01/09/2022,06:27:31,0.006,0.0,0.002,0.0
01/09/2022,06:29:24,0.006,0.0,0.003,0.001
01/09/2022,06:30:23,0.008,0.0,0.003,0.0
01/09/2022,06:31:23,0.008,0.0,0.003,0.0
01/09/2022,06:32:23,0.008,0.0,0.003,0.0
01/09/2022,06:33:23,0.009,0.0,0.003,0.0
01/09/2022,06:34:23,0.008,0.0,0.003,0.0
01/09/2022,06:35:23,0.010,0.0,0.003,0.0
01/09/2022,06:36:23,0.009,0.0,0.004,0.001
01/09/2022,06:37:31,0.012,0.0,0.004,0.0
01/09/2022,06:39:25,0.012,0.0,0.004,0.0
01/09/2022,06:40:23,0.012,0.0,0.004,0.0
01/09/2022,06:41:23,0.013,0.0,0.005,0.001
01/09/2022,06:42:23,0.014,0.0,0.005,0.0
01/09/2022,06:43:23,0.015,0.0,0.005,0.0
01/09/2022,06:44:23,0.014,0.0,0.005,0.0
01/09/2022,06:45:23,0.014,0.0,0.005,0.0
01/09/2022,06:46:25,0.015,0.0,0.006,0.001
01/09/2022,06:47:23,0.015,0.0,0.006,0.0
01/09/2022,06:48:23,0.015,0.0,0.006,0.0
01/09/2022,06:49:23,0.014,0.0,0.006,0.0
01/09/2022,06:50:23,0.015,0.0,0.007,0.001
01/09/2022,06:51:23,0.015,0.0,0.007,0.0
01/09/2022,06:52:23,0.015,0.0,0.007,0.0
01/09/2022,06:53:23,0.018,0.0,0.007,0.0
01/09/2022,06:54:23,0.020,0.0,0.008,0.001
01/09/2022,06:55:32,0.021,0.0,0.008,0.0
01/09/2022,06:57:24,0.023,0.0,0.009,0.001
01/09/2022,06:58:23,0.024,0.0,0.009,0.0
01/09/2022,06:59:23,0.027,0.0,0.01,0.001
01/09/2022,07:00:23,0.028,0.0,0.01,0.0
01/09/2022,07:01:23,0.032,0.0,0.011,0.001
01/09/2022,07:02:23,0.034,0.0,0.011,0.0
01/09/2022,07:03:23,0.037,0.0,0.012,0.001
01/09/2022,07:04:23,0.039,0.0,0.012,0.0
01/09/2022,07:05:44,0.042,0.0,0.013,0.001
01/09/2022,07:07:24,0.041,0.0,0.014,0.001
01/09/2022,07:08:23,0.040,0.0,0.015,0.001
01/09/2022,07:09:23,0.040,0.0,0.016,0.001
01/09/2022,07:10:23,0.040,0.0,0.016,0.0
01/09/2022,07:11:23,0.041,0.0,0.017,0.001
01/09/2022,07:12:23,0.041,0.0,0.018,0.001
01/09/2022,07:13:23,0.042,0.0,0.018,0.0
01/09/2022,07:14:23,0.043,0.0,0.019,0.001
01/09/2022,07:15:23,0.043,0.0,0.02,0.001
01/09/2022,07:16:23,0.041,0.0,0.021,0.001
01/09/2022,07:17:23,0.041,0.0,0.021,0.0
01/09/2022,07:18:23,0.040,0.0,0.022,0.001
01/09/2022,07:19:23,0.040,0.0,0.023,0.001
01/09/2022,07:20:23,0.041,0.0,0.023,0.0
01/09/2022,07:21:23,0.042,0.0,0.024,0.001
01/09/2022,07:22:25,0.047,0.0,0.025,0.001
01/09/2022,07:23:31,0.051,0.0,0.026,0.001
01/09/2022,07:24:23,0.055,0.0,0.026,0.0
01/09/2022,07:25:23,0.058,0.0,0.027,0.001
01/09/2022,07:26:23,0.060,0.0,0.028,0.001
01/09/2022,07:27:23,0.059,0.0,0.029,0.001
01/09/2022,07:28:23,0.056,0.0,0.03,0.001
01/09/2022,07:29:23,0.054,0.0,0.031,0.001
01/09/2022,07:30:23,0.052,0.0,0.032,0.001
01/09/2022,07:31:23,0.051,0.0,0.033,0.001
01/09/2022,07:32:23,0.052,0.0,0.034,0.001
01/09/2022,07:33:32,0.053,0.0,0.035,0.001
01/09/2022,07:35:21,0.055,0.0,0.036,0.001
01/09/2022,07:36:21,0.055,0.0,0.037,0.001
01/09/2022,07:37:24,0.054,0.0,0.038,0.001
01/09/2022,07:38:23,0.053,0.0,0.039,0.001
01/09/2022,07:39:23,0.053,0.0,0.04,0.001
01/09/2022,07:40:23,0.053,0.0,0.041,0.001
01/09/2022,07:41:23,0.055,0.0,0.042,0.001
01/09/2022,07:42:23,0.057,0.0,0.043,0.001
01/09/2022,07:43:23,0.060,0.0,0.044,0.001
01/09/2022,07:44:22,0.062,0.0,0.045,0.001
01/09/2022,07:45:31,0.065,0.0,0.046,0.001
01/09/2022,07:47:24,0.066,0.0,0.048,0.002
01/09/2022,07:48:31,0.069,0.0,0.049,0.001
01/09/2022,07:50:40,0.074,0.0,0.052,0.003
01/09/2022,07:52:24,0.074,0.0,0.054,0.002
01/09/2022,07:53:23,0.077,0.0,0.055,0.001
01/09/2022,07:54:23,0.079,0.0,0.056,0.001
01/09/2022,07:55:23,0.084,0.0,0.058,0.002
01/09/2022,07:56:23,0.092,0.0,0.059,0.001
01/09/2022,07:57:23,0.098,0.0,0.061,0.002
01/09/2022,07:58:23,0.103,0.0,0.062,0.001
01/09/2022,07:59:23,0.109,0.0,0.064,0.002
01/09/2022,08:00:23,0.117,0.0,0.066,0.002
01/09/2022,08:01:23,0.125,0.0,0.068,0.002
01/09/2022,08:02:23,0.133,0.0,0.07,0.002
01/09/2022,08:03:23,0.140,0.0,0.073,0.003
01/09/2022,08:04:21,0.145,0.0,0.075,0.002
01/09/2022,08:05:21,0.147,0.0,0.077,0.002
01/09/2022,08:06:23,0.150,0.0,0.08,0.003
01/09/2022,08:07:23,0.153,0.0,0.082,0.002
01/09/2022,08:08:23,0.161,0.0,0.085,0.003
01/09/2022,08:09:23,0.169,0.0,0.088,0.003
01/09/2022,08:10:31,0.178,0.0,0.091,0.003
01/09/2022,08:12:25,0.192,0.0,0.097,0.006
01/09/2022,08:13:32,0.203,0.0,0.101,0.004
01/09/2022,08:15:24,0.224,1.0,0.107,0.006
01/09/2022,08:16:23,0.236,1.0,0.111,0.004
01/09/2022,08:17:23,0.244,1.0,0.115,0.004
01/09/2022,08:18:23,0.251,1.0,0.119,0.004
01/09/2022,08:19:23,0.262,1.0,0.123,0.004
01/09/2022,08:20:23,0.264,1.0,0.128,0.005
01/09/2022,08:21:23,0.272,1.0,0.132,0.004
01/09/2022,08:22:23,0.287,1.0,0.137,0.005
01/09/2022,08:23:23,0.308,1.0,0.142,0.005
01/09/2022,08:24:23,0.319,1.0,0.147,0.005
01/09/2022,08:25:24,0.331,1.0,0.153,0.006
01/09/2022,08:26:23,0.334,1.0,0.158,0.005
01/09/2022,08:27:23,0.335,1.0,0.164,0.006
01/09/2022,08:28:23,0.341,1.0,0.169,0.005
01/09/2022,08:29:23,0.344,1.0,0.175,0.006
01/09/2022,08:30:23,0.343,1.0,0.181,0.006
01/09/2022,08:31:23,0.342,1.0,0.186,0.005
01/09/2022,08:32:23,0.340,1.0,0.192,0.006
01/09/2022,08:33:23,0.339,1.0,0.198,0.006
01/09/2022,08:34:36,0.342,1.0,0.205,0.007
01/09/2022,08:36:23,0.357,1.0,0.215,0.01
01/09/2022,08:37:25,0.371,1.0,0.221,0.006
01/09/2022,08:38:31,0.369,1.0,0.228,0.007
01/09/2022,08:40:24,0.362,1.0,0.24,0.012
01/09/2022,08:41:23,0.354,1.0,0.245,0.005
01/09/2022,08:42:23,0.344,1.0,0.251,0.006
01/09/2022,08:43:23,0.338,1.0,0.257,0.006
01/09/2022,08:44:23,0.337,1.0,0.262,0.005
01/09/2022,08:45:23,0.338,1.0,0.268,0.006
01/09/2022,08:46:23,0.344,1.0,0.274,0.006
01/09/2022,08:47:23,0.353,1.0,0.28,0.006
01/09/2022,08:48:23,0.364,1.0,0.286,0.006
01/09/2022,08:49:23,0.377,1.0,0.292,0.006
01/09/2022,08:50:23,0.385,1.0,0.298,0.006
01/09/2022,08:51:23,0.389,1.0,0.305,0.007
01/09/2022,08:52:23,0.386,1.0,0.311,0.006
01/09/2022,08:53:23,0.383,1.0,0.318,0.007
01/09/2022,08:54:23,0.383,1.0,0.324,0.006
01/09/2022,08:55:23,0.381,1.0,0.33,0.006
01/09/2022,08:56:31,0.382,1.0,0.338,0.008
01/09/2022,08:58:24,0.382,1.0,0.349,0.011
01/09/2022,08:59:23,0.383,1.0,0.356,0.007
01/09/2022,09:00:23,0.386,1.0,0.362,0.006
01/09/2022,09:01:23,0.397,1.0,0.368,0.006
01/09/2022,09:02:23,0.409,1.0,0.375,0.007
01/09/2022,09:03:23,0.416,1.0,0.382,0.007
01/09/2022,09:04:23,0.418,1.0,0.389,0.007
01/09/2022,09:05:23,0.412,1.0,0.396,0.007
01/09/2022,09:06:32,0.404,1.0,0.404,0.008
01/09/2022,09:08:23,0.390,1.0,0.416,0.012
01/09/2022,09:09:23,0.388,1.0,0.423,0.007
01/09/2022,09:10:23,0.385,1.0,0.429,0.006
01/09/2022,09:11:23,0.382,1.0,0.435,0.006
01/09/2022,09:12:24,0.383,1.0,0.442,0.007
01/09/2022,09:13:23,0.389,1.0,0.448,0.006
01/09/2022,09:14:23,0.404,1.0,0.455,0.007
01/09/2022,09:15:23,0.441,1.0,0.462,0.007
01/09/2022,09:16:21,0.459,1.0,0.469,0.007
01/09/2022,09:17:21,0.507,1.0,0.477,0.008
01/09/2022,09:18:31,0.542,1.0,0.487,0.01
01/09/2022,09:20:24,0.587,1.0,0.505,0.018
01/09/2022,09:21:23,0.590,1.0,0.515,0.01
01/09/2022,09:22:24,0.593,1.0,0.525,0.01
01/09/2022,09:23:24,0.595,1.0,0.535,0.01
01/09/2022,09:24:32,0.604,1.0,0.546,0.011
01/09/2022,09:26:23,0.595,1.0,0.565,0.019
01/09/2022,09:27:23,0.593,1.0,0.575,0.01
01/09/2022,09:28:23,0.595,1.0,0.585,0.01
01/09/2022,09:29:21,0.603,1.0,0.594,0.009
01/09/2022,09:30:21,0.618,1.0,0.604,0.01
01/09/2022,09:31:23,0.654,2.0,0.615,0.011
01/09/2022,09:32:23,0.649,1.0,0.626,0.011
01/09/2022,09:33:23,0.681,2.0,0.637,0.011
01/09/2022,09:34:24,0.674,2.0,0.649,0.012
01/09/2022,09:35:21,0.688,2.0,0.659,0.01
01/09/2022,09:36:29,0.719,2.0,0.673,0.014
01/09/2022,09:37:23,0.817,2.0,0.684,0.011
01/09/2022,09:38:23,0.865,2.0,0.699,0.015
01/09/2022,09:39:23,0.887,2.0,0.713,0.014
01/09/2022,09:40:24,0.879,2.0,0.728,0.015
01/09/2022,09:41:23,0.873,2.0,0.742,0.014
01/09/2022,09:42:23,0.826,2.0,0.756,0.014
01/09/2022,09:43:23,0.792,2.0,0.77,0.014
01/09/2022,09:44:25,0.800,2.0,0.783,0.013
01/09/2022,09:45:23,0.813,2.0,0.796,0.013
01/09/2022,09:46:23,0.809,2.0,0.81,0.014
01/09/2022,09:47:24,0.787,2.0,0.823,0.013
01/09/2022,09:48:23,0.754,2.0,0.836,0.013
01/09/2022,09:49:32,0.729,2.0,0.85,0.014
01/09/2022,09:51:22,0.745,2.0,0.873,0.023
01/09/2022,09:52:30,0.711,2.0,0.887,0.014
01/09/2022,09:53:23,0.707,2.0,0.897,0.01
01/09/2022,09:54:23,0.706,2.0,0.909,0.012
01/09/2022,09:55:24,0.713,2.0,0.921,0.012
01/09/2022,09:56:23,0.662,2.0,0.932,0.011
01/09/2022,09:57:23,0.640,1.0,0.943,0.011
01/09/2022,09:58:22,0.619,1.0,0.953,0.01
01/09/2022,09:59:21,0.600,1.0,0.964,0.011
01/09/2022,10:00:23,0.587,1.0,0.974,0.01
01/09/2022,10:01:24,0.577,1.0,0.983,0.009
01/09/2022,10:02:23,0.568,1.0,0.993,0.01
01/09/2022,10:03:23,0.565,1.0,1.002,0.009
01/09/2022,10:04:23,0.567,1.0,1.012,0.01
01/09/2022,10:05:24,0.570,1.0,1.021,0.009
01/09/2022,10:06:24,0.570,1.0,1.031,0.01
01/09/2022,10:07:32,0.567,1.0,1.041,0.01
01/09/2022,10:09:24,0.559,1.0,1.059,0.018
01/09/2022,10:10:23,0.559,1.0,1.068,0.009
01/09/2022,10:11:24,0.555,1.0,1.078,0.01
01/09/2022,10:12:23,0.554,1.0,1.087,0.009
01/09/2022,10:13:24,0.551,1.0,1.096,0.009
01/09/2022,10:14:23,0.550,1.0,1.105,0.009
01/09/2022,10:15:24,0.547,1.0,1.114,0.009
01/09/2022,10:16:21,0.545,1.0,1.123,0.009
01/09/2022,10:17:21,0.540,1.0,1.132,0.009
01/09/2022,10:18:23,0.542,1.0,1.141,0.009
01/09/2022,10:19:32,0.550,1.0,1.152,0.011
01/09/2022,10:21:24,0.574,1.0,1.169,0.017
01/09/2022,10:22:11,0.582,1.0,1.177,0.008
01/09/2022,10:23:24,0.584,1.0,1.189,0.012
01/09/2022,10:24:23,0.581,1.0,1.198,0.009
01/09/2022,10:25:32,0.580,1.0,1.21,0.012
01/09/2022,10:27:24,0.578,1.0,1.228,0.018
01/09/2022,10:28:23,0.580,1.0,1.237,0.009
01/09/2022,10:29:23,0.587,1.0,1.247,0.01
01/09/2022,10:30:23,0.608,1.0,1.257,0.01
01/09/2022,10:31:24,0.650,1.0,1.267,0.01
01/09/2022,10:32:23,0.664,2.0,1.278,0.011
01/09/2022,10:33:23,0.695,2.0,1.29,0.012
01/09/2022,10:34:23,0.721,2.0,1.301,0.011
01/09/2022,10:35:24,0.742,2.0,1.314,0.013
01/09/2022,10:36:24,0.762,2.0,1.326,0.012
01/09/2022,10:37:24,0.787,2.0,1.339,0.013
01/09/2022,10:38:23,0.818,2.0,1.352,0.013
01/09/2022,10:39:23,0.853,2.0,1.366,0.014
01/09/2022,10:40:32,0.899,2.0,1.383,0.017
01/09/2022,10:42:24,0.972,2.0,1.412,0.029
01/09/2022,10:43:24,1.102,3.0,1.43,0.018
01/09/2022,10:44:23,1.117,3.0,1.448,0.018
01/09/2022,10:45:23,1.136,3.0,1.467,0.019
01/09/2022,10:46:24,1.127,3.0,1.486,0.019
01/09/2022,10:47:24,1.099,3.0,1.504,0.018
01/09/2022,10:48:23,0.996,2.0,1.521,0.017
01/09/2022,10:49:24,0.988,2.0,1.539,0.018
01/09/2022,10:50:24,0.909,2.0,1.554,0.015
01/09/2022,10:51:23,0.879,2.0,1.569,0.015
01/09/2022,10:52:31,0.844,2.0,1.586,0.017
01/09/2022,10:54:24,0.800,2.0,1.611,0.025
01/09/2022,10:55:21,0.786,2.0,1.624,0.013
01/09/2022,10:56:22,0.773,2.0,1.637,0.013
01/09/2022,10:57:23,0.754,2.0,1.65,0.013
01/09/2022,10:58:23,0.766,2.0,1.663,0.013
01/09/2022,10:59:23,0.805,2.0,1.675,0.012
01/09/2022,11:00:23,0.783,2.0,1.689,0.014
01/09/2022,11:01:23,0.793,2.0,1.702,0.013
01/09/2022,11:02:32,0.810,2.0,1.717,0.015
01/09/2022,11:04:23,0.833,2.0,1.743,0.026
01/09/2022,11:05:24,0.849,2.0,1.757,0.014
01/09/2022,11:06:23,0.878,2.0,1.771,0.014
01/09/2022,11:07:24,0.991,2.0,1.787,0.016
01/09/2022,11:08:22,1.076,2.0,1.803,0.016
01/09/2022,11:09:21,1.121,3.0,1.822,0.019
01/09/2022,11:10:32,1.106,3.0,1.843,0.021